Showing default

YAM-5, 55076

Orbit data source: Space-Track

YAM-5, 55076 is a payload satellite owned by Loft Orbital (US) in SSO that was launched on Tue, 03 Jan 2023 UTC via an FALCON 9 launch vehicle from the Air Force Eastern Test Range (AFETR). Payload-class satellites include a variety of spacecraft equipped with specific instruments for various scientific and technological missions. These include communications satellites like Starlink; space stations such as the ISS; scientific satellites like the Hubble; Earth observation satellites from companies like Planet Labs, Umbra, and HawkEye 360; GPS; miniature CubeSats for education and research; and military/defense satellites.

Loading next visibility...
Identifier
55076, 2023-001BV
Orbit
SSO
Country
Flag of USUS
Related business
Manufacturer
LeoStella
Mission
Operational Commercial Technology
Bus & Motor
YAM, Unknown motor
Mass
87 kg wet, 87 kg dry
Launch date (UTC)
2023-01-03 (3 years ago)
Launch vehicle
FALCON 9
Launch site
Air Force Eastern Test Range (AFETR)
Object type
Payload
Rocket body
Debris
Shape & HBR
Box, 1.0 m
Radar Cross Section
1.500 m², Medium (>0.1 m² and < 1m²)

Expand to show TLE details & history
Last TLE update: 11 hours ago

TLE from 11 hours ago
0 YAM-5
1 55076U 23001BV  25286.90621466  .00014083  00000-0  45524-3 0  9995
2 55076  97.3575 345.9380 0008500 272.5092  87.5177 15.32159271154318
Epoch: 2025-10-13T21:44Z
TLE epoch observation values (Epoch: 2025-10-13T21:44:56.946Z)
Latitude
-0.00001°
Longitude
-3.00155°
Altitude
472.232 km
Speed
7.63 km/s
True Right ascension
23h 03m 45s
True Declination
0° 00' 00"
Sunlit
Object was in full shadow at epoch
Visualization orbit readout
Latitude
Unknown
Longitude
Unknown
Altitude
Unknown
Speed
Unknown
Apparent Right ascension
Unknown
Apparent Declination
Unknown
Sunlit
N/A
Visualization observer readout
Local Sidereal Time
02:52:12
Azimuth
Unknown
Elevation
Unknown
Doppler factor
Unknown
Orbital elements
Apogee altitude
472.137 km
Perigee altitude
460.501 km
Semi-major axis
6,844.456 km
Eccentricity
0.00085
Inclination
97.3575°
RAAN
345.938°
Arg. of periapsis
272.5092°
True anomaly
87.61502°
Mean anomaly
87.5177°
Eccentric anomaly
87.56636°
Mean motion
3.83296 °/min
Orbital period
93.92 mins
BSTAR
0.00045524
Loading maneuver chart data...
Computing Atmospheric mass density...
Loading historical data...
Loading historical data...
Loading historical data...
Loading historical data...
Loading historical data...
Loading historical data...
Loading historical data...

Documentation

Showing up to 5 results
|